Regional Weather Roundup
Issued by NWS

Home | Current Version | Previous Version | Text Only | Print | Product List | Glossary On
Versions: 1 2 3 4 5 6 7 8 9 10 11 12 13 14 15 16 17 18 19 20 21 22 23 24 25 26 27 28 29 30 31 32 33 34 35 36 37 38 39 40 41 42 43 44 45 46 47 48 49 50
801
ASUS44 KLIX 290907
RWRLA
LOUISIANA WEATHER ROUNDUP
NATIONAL WEATHER SERVICE NEW ORLEANS LA
400 AM CDT SUN MAR 29 2015

NOTE: "FAIR" INDICATES FEW OR NO CLOUDS BELOW 12,000 FEET WITH NO
      SIGNIFICANT WEATHER AND/OR OBSTRUCTIONS TO VISIBILITY.
      SKY/WX - SKY CONDITION AND SIGNIFICANT WEATHER.
      TMP - AIR TEMPERATURE.    DP   - DEWPOINT TEMPERATURE.
      RH  - RELATIVE HUMIDITY.  PRES - PRESSURE.
      HX  - HEAT INDEX.         WCI  - WIND CHILL INDEX.

*  THESE STATIONS ARE NOT NWS OR FAA STATIONS AND ARE NOT UNDER
   NWS QUALITY CONTROL.

LAZ040-048-061>063-065-066-069-291000-
SOUTHEAST LOUISIANA

CITY           SKY/WX    TMP DP  RH WIND       PRES   REMARKS
N.O. AUDUBON   NOT AVBL
N.O. INTL ARPT PTCLDY    57  51  80 SE7       30.21F
N.O. LAKEFRONT MOCLDY    61  53  75 E7        30.23S
SLIDELL        CLEAR     47  40  76 NE5       30.23F
BATON ROUGE    PTCLDY    51  50  96 NE5       30.21S
BOOTHVILLE     CLEAR     57  53  86 E5        30.22F
BELLE CHASSE   CLEAR     54  50  86 E3        30.21F
BOGALUSA*        N/A     47  33  58 NE5       30.27F
GALLIANO*      SUNNY     57  56  95 CALM      30.21S
NEW ROADS*     FAIR      54  51  90 E3        30.20S
GONZALES*      FAIR      54  54 100 CALM      30.20F
HAMMOND*       PTCLDY    50  43  76 E5        30.25S
HOUMA*         CLEAR     54  53  98 E3        30.20S FOG
PORT FOURCHON* SUNNY     66  61  82 SE8       30.23S

$$

LAZ041-044-053-054-291000-
SOUTHWEST LOUISIANA

CITY           SKY/WX    TMP DP  RH WIND       PRES   REMARKS
LAKE CHARLES   CLEAR     56  55  97 SE6       30.14F
LAFAYETTE      CLEAR     56  55  97 CALM      30.18S
PATTERSON      CLEAR     55  54  94 E3        30.18F
SALT POINT       N/A     58  57  97 E3        30.17F
NEW IBERIA     CLEAR     55  54  96 SE6       30.18F
CHENAULT AIRPK CLEAR     56  56  99 SE7       30.15F

$$

LAZ027-028-291000-
CENTRAL LOUISIANA

CITY           SKY/WX    TMP DP  RH WIND       PRES   REMARKS
FORT POLK      FOG       57  56  97 SE6       30.14S VSB 1/2
ALEXANDRIA INT CLOUDY    58  57  97 SE8       30.15S
ALEXANDRIA     CLOUDY    56  54  93 SE5       30.17F

$$

LAZ001-002-291000-
NORTHWEST LOUISIANA

CITY           SKY/WX    TMP DP  RH WIND       PRES   REMARKS
SHREVEPORT     CLEAR     50  40  68 E9        30.12F
BARKSDALE AFB  CLEAR     47  37  70 SE5       30.13F
DTN SHREVEPORT CLEAR     48  37  65 E6        30.14S

$$

LAZ014-016-291000-
NORTHEAST LOUISIANA

CITY           SKY/WX    TMP DP  RH WIND       PRES   REMARKS
MONROE         MOCLDY    49  36  61 E5        30.20F
TALLULAH       MOCLDY    47  34  60 SE9       30.23F

$$




USA.gov is the U.S. government's official web portal to all federal, state and local government web resources and services.